Regional Weather Roundup
Issued by NWS Bismarck, ND

Home | Current Version | Previous Version | Text Only | Print | Product List | Glossary On
Versions: 1 2 3 4 5 6 7 8 9 10 11 12 13 14 15 16 17 18 19 20 21 22 23 24 25 26 27 28 29 30 31 32 33 34 35 36 37 38 39 40 41 42 43 44 45 46 47 48 49 50
000
ASUS43 KBIS 261920
RWRBIS

NWR BROADCAST TEXT
NATIONAL WEATHER SERVICE BISMARCK ND
200 PM CDT SUN APR 26 2015

NOTE: "FAIR" INDICATES FEW OR NO CLOUDS BELOW 12,000 FEET WITH NO
SIGNIFICANT WEATHER AND/OR OBSTRUCTIONS TO VISIBILITY.


CITY           SKY/WX    TMP DP  RH WIND       PRES   REMARKS
WILLISTON      PTSUNNY   50  35  56 N10       30.11F
MINOT          CLOUDY    47  41  80 W3        30.10R
MINOT AFB      PTSUNNY   50  48  93 VRB2      30.09S
BISMARCK       CLOUDY    54  47  77 W5        30.10R
DICKINSON      LGT RAIN  43  40  89 NE12      30.08R
GARRISON         N/A     47  43  86 NW5       30.10R
HETTINGER ARPT LGT RAIN  46  43  89 NE12      30.07S
JAMESTOWN      MOSUNNY   64  36  35 S7        30.08F
BEACH          CLOUDY    41  41 100 NE13      30.11S
CARRINGTON     FAIR      61  41  48 S10       30.10F
CROSBY         CLOUDY    46  39  76 NW8G17    30.12S
HARVEY           N/A    N/A N/A N/A MISG        N/A
HAZEN          MIX PCPN  43  43 100 NW6       30.12R
LINTON         MOCLDY    63  36  36 SE13G20   30.07S
MANDAN         CLOUDY    54  46  76 SW6       30.10S
OAKES            N/A     63  36  36 SE10G16   30.10S
STANLEY        FAIR      52  43  71 N9        30.10F
TIOGA          FAIR      48  39  71 W9        30.13S
WATFORD CITY   MOCLDY    46  36  66 CALM      30.10S
$$

CITY           SKY/WX    TMP DP  RH WIND       PRES   REMARKS
GRAND FORKS    MOSUNNY   64  26  23 VRB6      30.12F
GRAND FORKS AF SUNNY     65  26  22 SW7       30.12S
DEVILS LAKE    CLOUDY    57  45  62 W8        30.11S
FARGO          SUNNY     64  22  20 VRB5      30.12S
CANDO          MOCLDY    54  50  87 SW13      30.12S FOG
CAVALIER       FAIR      64  32  29 S12G18    30.11S
GRAFTON        FAIR      64  28  25 S13G20    30.13S
GWINNER        CLEAR     64  32  29 SE9       30.12S
LANGDON        MOCLDY    66  41  39 SW14      30.11S
ROLLA          CLOUDY    48  48 100 SW12      30.12R
WALHALLA       FAIR      66  32  28 SW10      30.10S
$$

CITY           SKY/WX    TMP DP  RH WIND       PRES   REMARKS
ABERDEEN       SUNNY     66  32  28 E10       30.08F
MOBRIDGE       CLOUDY    63  38  39 S12       30.03F
BUFFALO          N/A     44  43  96 NE20      29.98S
RAPID CITY     CLOUDY    50  46  86 CALM      30.01S
GLASGOW        CLOUDY    42  32  67 NW12      30.14R
SIDNEY         PTSUNNY   50  36  57 N7        30.13R
WOLF POINT     CLOUDY    47  35  63 NW7       30.13S
GLENDIVE       PTSUNNY   46  34  61 N10       30.12S
MILES CITY     CLOUDY    47  37  68 N14       30.09S
BAKER          CLOUDY    43  37  79 N13       30.10R
$$

CITY           SKY/WX    TMP DP  RH WIND       PRES   REMARKS
BILLINGS       LGT RAIN  37  34  89 NE14      30.11R FOG
GREAT FALLS    CLOUDY    37  26  64 N5        30.18R
REGINA         CLOUDY    39  34  81 W17G23    30.11R
ESTEVAN        PTSUNNY   45  34  65 NW12G18   30.12R
$$




USA.gov is the U.S. government's official web portal to all federal, state and local government web resources and services.